Canton, GA

11:12 AM EST on November 12, 2019 (GMT -0500)
Canton

Weather History for KCNI - October, 2019

Change the Weather History Date:

Monday, October 21, 2019

  Actual Average (KMGE) Record (KMGE)
Temperature  
Mean Temperature 60 °F -  
Max Temperature 71 °F 68 °F 82 °F (2003)
Min Temperature 50 °F 49 °F 37 °F (2011)
Degree Days  
Heating Degree Days 4    
Growing Degree Days 10 (Base 50)    
Moisture  
Dew Point 60 °F    
Average Humidity 93    
Maximum Humidity 100    
Minimum Humidity 73    
Precipitation  
Precipitation 0.00 in - - ()
Sea Level Pressure  
Sea Level Pressure 30.00 in    
Wind  
Wind Speed 2 mph (East)    
Max Wind Speed 13 mph    
Max Gust Speed 18 mph    
Visibility 7 miles    
Events Fog , Rain    
Averages and records for this station are not official NWS values.
T = Trace of Precipitation, MM = Missing Value Source: NWS Daily Summary

Daily Weather History Graph

Daily Weather History Graph

Search for Another Location

Airport or City:

Astronomy

Oct. 21, 2019 Rise Set
Actual Time 7:47 AM EDT 6:56 PM EDT
Civil Twilight 7:22 AM EDT 7:21 PM EDT
Nautical Twilight 6:53 AM EDT 7:51 PM EDT
Astronomical Twilight 6:23 AM EDT 8:20 PM EDT
Moon 12:15 AM EDT (10/21) 2:56 PM EDT (10/21)
Length of Visible Light 11h 59m
Length of Day
11h 08m
Waning Gibbous, 48% of the Moon is Illuminated
Oct 21
Waning Gibbous
Oct 27
New
Nov 4
First Quarter
Nov 12
Full
Nov 19
Last Quarter

Hourly Weather History & Observations

Time (EDT) Temp. Dew Point Humidity Pressure Visibility Wind Dir Wind Speed Gust Speed Precip Events Conditions
12:10 AM 59.0 °F 59.0 °F 100% 30.00 in 10.0 mi Calm Calm - N/A   Clear
12:30 AM 59.0 °F 59.0 °F 100% 30.00 in 10.0 mi Calm Calm - N/A   Clear
12:50 AM 60.8 °F 60.8 °F 100% 30.00 in 10.0 mi Calm Calm - N/A   Clear
1:10 AM 59.0 °F 57.2 °F 94% 30.00 in 10.0 mi Calm Calm - N/A   Clear
1:30 AM 59.0 °F 59.0 °F 100% 29.99 in 10.0 mi Calm Calm - N/A   Clear
1:50 AM 59.0 °F 59.0 °F 100% 29.99 in 10.0 mi Calm Calm - N/A   Clear
2:10 AM 59.0 °F 59.0 °F 100% 29.99 in 10.0 mi Calm Calm - N/A   Clear
2:30 AM 55.4 °F 55.4 °F 100% 30.00 in 7.0 mi Calm Calm - N/A   Clear
2:50 AM 55.4 °F 55.4 °F 100% 29.99 in 7.0 mi Calm Calm - N/A   Clear
3:10 AM 53.6 °F 53.6 °F 100% 29.99 in 1.5 mi Calm Calm - N/A   Mostly Cloudy
3:30 AM 53.6 °F 53.6 °F 100% 29.99 in 1.2 mi Calm Calm - N/A   Overcast
3:50 AM 55.4 °F 55.4 °F 100% 29.99 in 0.8 mi Calm Calm - N/A   Overcast
4:10 AM 55.4 °F 55.4 °F 100% 29.98 in 0.5 mi Calm Calm - N/A Fog Fog
4:30 AM 53.6 °F 53.6 °F 100% 29.98 in 0.2 mi Calm Calm - N/A Fog Fog
4:50 AM 53.6 °F 53.6 °F 100% 29.97 in 0.2 mi Calm Calm - N/A Fog Fog
5:10 AM 51.8 °F 51.8 °F 100% 29.98 in 0.8 mi Calm Calm - N/A   Overcast
5:30 AM 53.6 °F 53.6 °F 100% 29.98 in 0.8 mi Calm Calm - N/A   Overcast
5:50 AM 53.6 °F 53.6 °F 100% 29.98 in 0.5 mi Calm Calm - N/A Fog Fog
6:10 AM 51.8 °F 51.8 °F 100% 29.99 in 0.5 mi Calm Calm - N/A Fog Fog
6:30 AM 50.0 °F 50.0 °F 100% 30.00 in 0.8 mi Calm Calm - N/A   Overcast
6:50 AM 51.8 °F 51.8 °F 100% 30.01 in 1.5 mi Calm Calm - N/A   Overcast
7:10 AM 53.6 °F 53.6 °F 100% 30.01 in 10.0 mi Calm Calm - N/A   Scattered Clouds
7:50 AM 53.6 °F 53.6 °F 100% 30.01 in 10.0 mi ENE 3.5 mph - N/A   Scattered Clouds
8:10 AM 53.6 °F 53.6 °F 100% 30.01 in 0.2 mi Calm Calm - N/A Fog Fog
8:30 AM 55.4 °F 55.4 °F 100% 30.02 in 0.2 mi East 4.6 mph - N/A Fog Fog
8:50 AM 55.4 °F 55.4 °F 100% 30.02 in 0.2 mi Calm Calm - N/A Fog Fog
9:10 AM 59.0 °F 59.0 °F 100% 30.02 in 0.2 mi ENE 4.6 mph - N/A Fog Fog
9:30 AM 59.0 °F 59.0 °F 100% 30.03 in 0.8 mi East 5.8 mph - N/A   Overcast
9:50 AM 60.8 °F 60.8 °F 100% 30.04 in 1.8 mi East 4.6 mph - N/A   Overcast
10:10 AM 60.8 °F 60.8 °F 100% 30.04 in 4.0 mi East 5.8 mph - N/A   Overcast
10:30 AM 60.8 °F 60.8 °F 100% 30.05 in 7.0 mi ESE 3.5 mph - N/A   Overcast
10:50 AM 60.8 °F 60.8 °F 100% 30.05 in 7.0 mi ESE 6.9 mph - N/A   Overcast
11:10 AM 60.8 °F 60.8 °F 100% 30.03 in 10.0 mi East 9.2 mph - N/A   Overcast
11:30 AM 62.6 °F 62.6 °F 100% 30.01 in 10.0 mi East 12.7 mph 18.4 mph N/A   Overcast
11:50 AM 62.6 °F 62.6 °F 100% 30.02 in 10.0 mi East 6.9 mph - N/A   Overcast
12:10 PM 62.6 °F 62.6 °F 100% 30.02 in 10.0 mi East 4.6 mph - N/A   Overcast
12:30 PM 64.4 °F 64.4 °F 100% 30.02 in 10.0 mi ENE 3.5 mph - N/A   Overcast
12:50 PM 68.0 °F 62.6 °F 83% 30.03 in 10.0 mi ESE 5.8 mph - N/A   Overcast
1:10 PM 68.0 °F 62.6 °F 83% 30.03 in 10.0 mi East 6.9 mph - N/A   Overcast
1:30 PM 69.8 °F 62.6 °F 78% 30.02 in 10.0 mi SE 9.2 mph - N/A   Overcast
1:50 PM 69.8 °F 60.8 °F 73% 30.01 in 10.0 mi SE 6.9 mph - N/A   Overcast
2:10 PM 69.8 °F 60.8 °F 73% 30.00 in 10.0 mi ESE 8.1 mph - N/A   Mostly Cloudy
2:30 PM 69.8 °F 60.8 °F 73% 30.00 in 10.0 mi ESE 5.8 mph - N/A   Overcast
3:10 PM 71.6 °F 62.6 °F 73% 30.00 in 10.0 mi East 5.8 mph - N/A   Mostly Cloudy
3:30 PM 69.8 °F 62.6 °F 78% 30.00 in 10.0 mi East 4.6 mph - N/A   Overcast
3:50 PM 69.8 °F 62.6 °F 78% 29.99 in 10.0 mi East 5.8 mph - N/A   Overcast
4:10 PM 69.8 °F 62.6 °F 78% 29.99 in 10.0 mi East 5.8 mph - N/A   Overcast
4:30 PM 71.6 °F 62.6 °F 73% 29.99 in 10.0 mi East 5.8 mph - N/A   Mostly Cloudy
4:50 PM 69.8 °F 62.6 °F 78% 29.99 in 10.0 mi East 6.9 mph - N/A   Overcast
5:10 PM 69.8 °F 62.6 °F 78% 29.98 in 10.0 mi East 3.5 mph - N/A   Mostly Cloudy
5:30 PM 69.8 °F 62.6 °F 78% 29.98 in 10.0 mi East 6.9 mph - N/A   Overcast
5:50 PM 69.8 °F 62.6 °F 78% 29.98 in 10.0 mi East 5.8 mph - N/A   Overcast
6:10 PM 69.8 °F 62.6 °F 78% 29.97 in 10.0 mi East 3.5 mph - N/A   Overcast
6:30 PM 69.8 °F 64.4 °F 83% 29.98 in 10.0 mi Calm Calm - N/A   Overcast
6:50 PM 68.0 °F 62.6 °F 83% 29.98 in 10.0 mi Calm Calm - N/A   Overcast
7:10 PM 68.0 °F 62.6 °F 83% 29.98 in 10.0 mi ENE 3.5 mph - N/A   Overcast
7:30 PM 68.0 °F 62.6 °F 83% 29.98 in 10.0 mi ENE 3.5 mph - N/A   Overcast
7:50 PM 68.0 °F 62.6 °F 83% 29.98 in 10.0 mi East 4.6 mph - N/A   Overcast
8:10 PM 68.0 °F 64.4 °F 88% 29.99 in 10.0 mi East 3.5 mph - N/A   Light Drizzle
8:30 PM 66.2 °F 64.4 °F 94% 30.00 in 10.0 mi ENE 3.5 mph - N/A Rain Light Rain
8:50 PM 66.2 °F 64.4 °F 94% 30.00 in 10.0 mi East 3.5 mph - N/A Rain Rain
9:10 PM 66.2 °F 64.4 °F 94% 29.99 in 10.0 mi ENE 3.5 mph - N/A Rain Light Rain
9:30 PM 64.4 °F 64.4 °F 100% 29.99 in 10.0 mi East 6.9 mph - N/A Rain Light Rain
9:50 PM 64.4 °F 64.4 °F 100% 29.98 in 7.0 mi East 4.6 mph - N/A Rain Light Rain
10:10 PM 64.4 °F 64.4 °F 100% 29.96 in 7.0 mi East 6.9 mph - N/A Rain Rain
10:30 PM 64.4 °F 64.4 °F 100% 29.98 in 7.0 mi ENE 3.5 mph - N/A   Light Drizzle
10:50 PM 64.4 °F 64.4 °F 100% 29.98 in 3.0 mi Calm Calm - N/A   Overcast
11:10 PM 64.4 °F 64.4 °F 100% 29.97 in 7.0 mi ENE 4.6 mph - N/A   Overcast
11:50 PM 64.4 °F 64.4 °F 100% 29.96 in 7.0 mi ENE 3.5 mph - N/A   Overcast